Location: Silverdale
(47.6506°N, 122.6941°W)
Time: 10:42:45
(UTC+00:00)

S-56A Canister/Altair - Pass Details

Date: 09 October 2022
Orbit: 638 x 2494 km, 38.9° (Epoch: 04 December)

Event Time Altitude Azimuth Distance (km) Brightness Sun altitude
Exits shadow 10:17:02 30° 128° (SE) 2,380 9.9 -39.2°
Drops below altitude 10° 10:20:33 10° 114° (ESE) 3,266 10.9 -38.7°
Sets 10:23:01 0° 109° (ESE) 4,016 11.5 -38.4°
